Weather History for Oscoda, MI

Change the Weather History Date:

Sunday, December 9, 2012

  Actual Average Record
Temperature  
Mean Temperature 28 °F -  
Max Temperature 34 °F 36 °F 48 °F (1998)
Min Temperature 23 °F 22 °F 3 °F (2002)
Degree Days  
Heating Degree Days 36    
Moisture  
Dew Point 25 °F    
Average Humidity 81    
Maximum Humidity 96    
Minimum Humidity 70    
Precipitation  
Precipitation 0.04 in - - ()
Sea Level Pressure  
Sea Level Pressure 30.05 in    
Wind  
Wind Speed 8 mph (ENE)    
Max Wind Speed 23 mph    
Max Gust Speed 30 mph    
Visibility 8 miles    
Events Rain , Snow    
Averages and records for this station are not official NWS values.
T = Trace of Precipitation, MM = Missing Value Source: NWS Daily Summary

Daily Weather History Graph

Daily Weather History Graph

Search for Another Location

Airport:

Trip Planner

Search our weather history database for the weather conditions in past years. The results will help you decide how hot, cold, wet, or windy it might be!

Date:

Astronomy

Dec. 09, 2012 Rise Set
Actual Time 7:58 AM EST 4:53 PM EST
Civil Twilight 7:25 AM EST 5:27 PM EST
Nautical Twilight 6:48 AM EST 6:03 PM EST
Astronomical Twilight 6:13 AM EST 6:38 PM EST
Moon 3:22 AM EST (12/9) 2:06 PM EST (12/9)
Length of Visible Light 10h 01m
Length of Day
8h 55m
Waning Crescent, 19% of the Moon is Illuminated
Dec 9
Waning Crescent
Dec 13
New
Dec 20
First Quarter
Dec 28
Full
Jan 4
Last Quarter

Hourly Weather History & Observations

Time (EST) Temp. Windchill Dew Point Humidity Pressure Visibility Wind Dir Wind Speed Gust Speed Precip Events Conditions
12:13 AM 26.4 °F - 19.0 °F 74% 30.16 in 10.0 mi Calm Calm - N/A   Clear
12:34 AM 23.9 °F 19.5 °F 18.5 °F 80% 30.18 in 10.0 mi WSW 3.5 mph - N/A   Clear
12:54 AM 23.7 °F 16.6 °F 19.9 °F 85% 30.19 in 10.0 mi WSW 5.8 mph - N/A   Clear
1:13 AM 23.7 °F 19.3 °F 19.9 °F 85% 30.20 in 10.0 mi WNW 3.5 mph - N/A   Mostly Cloudy
1:34 AM 25.5 °F 19.9 °F 20.8 °F 82% 30.20 in 10.0 mi NW 4.6 mph - N/A   Overcast
1:54 AM 26.2 °F 22.1 °F 21.2 °F 81% 30.20 in 10.0 mi NW 3.5 mph - N/A   Overcast
2:13 AM 26.6 °F - 21.2 °F 80% 30.20 in 10.0 mi Calm Calm - N/A   Overcast
2:34 AM 27.5 °F - 21.9 °F 80% 30.22 in 10.0 mi Calm Calm - N/A   Overcast
2:54 AM 28.4 °F 24.6 °F 22.1 °F 77% 30.23 in 10.0 mi NW 3.5 mph - N/A   Overcast
3:14 AM 28.9 °F 22.8 °F 21.9 °F 75% 30.22 in 10.0 mi North 5.8 mph - N/A   Overcast
3:34 AM 28.8 °F 23.7 °F 21.6 °F 74% 30.22 in 10.0 mi NNW 4.6 mph - N/A   Overcast
3:54 AM 28.4 °F 21.2 °F 21.2 °F 74% 30.20 in 10.0 mi North 6.9 mph - N/A   Scattered Clouds
4:14 AM 28.8 °F 21.7 °F 21.0 °F 73% 30.20 in 10.0 mi North 6.9 mph - N/A   Clear
4:34 AM 28.4 °F 22.2 °F 21.0 °F 74% 30.20 in 10.0 mi North 5.8 mph - N/A   Clear
4:53 AM 28.2 °F 23.1 °F 21.0 °F 74% 30.20 in 10.0 mi North 4.6 mph - N/A   Clear
5:14 AM 28.0 °F 24.2 °F 21.2 °F 76% 30.20 in 10.0 mi North 3.5 mph - N/A   Clear
5:34 AM 27.9 °F 21.5 °F 21.2 °F 76% 30.20 in 10.0 mi North 5.8 mph - N/A   Clear
5:53 AM 28.2 °F 22.0 °F 21.6 °F 76% 30.20 in 10.0 mi North 5.8 mph - N/A   Clear
6:14 AM 28.6 °F 24.8 °F 21.7 °F 76% 30.20 in 10.0 mi North 3.5 mph - N/A   Mostly Cloudy
6:34 AM 29.1 °F - 22.3 °F 76% 30.21 in 10.0 mi Calm Calm - N/A   Overcast
6:54 AM 28.8 °F - 23.0 °F 79% 30.20 in 10.0 mi Calm Calm - N/A   Overcast
7:14 AM 28.9 °F - 23.2 °F 79% 30.20 in 10.0 mi Calm Calm - N/A   Overcast
7:34 AM 30.0 °F - 24.4 °F 80% 30.20 in 10.0 mi Calm Calm - N/A   Overcast
7:54 AM 34.2 °F 25.2 °F 27.1 °F 75% 30.19 in 10.0 mi ESE 12.7 mph - N/A   Overcast
8:14 AM 34.2 °F 25.2 °F 26.2 °F 73% 30.18 in 10.0 mi ESE 12.7 mph 18.4 mph N/A   Overcast
8:34 AM 34.2 °F 25.2 °F 26.2 °F 73% 30.19 in 10.0 mi ESE 12.7 mph 18.4 mph N/A   Overcast
8:54 AM 34.0 °F 24.6 °F 25.3 °F 71% 30.19 in 10.0 mi East 13.8 mph 19.6 mph N/A   Overcast
9:14 AM 33.8 °F 25.8 °F 25.7 °F 72% 30.19 in 10.0 mi East 10.4 mph - N/A   Overcast
9:34 AM 33.8 °F 25.3 °F 25.7 °F 72% 30.20 in 10.0 mi East 11.5 mph 18.4 mph N/A   Overcast
9:54 AM 33.4 °F 23.9 °F 25.7 °F 73% 30.19 in 10.0 mi East 13.8 mph 17.3 mph N/A   Overcast
10:14 AM 33.1 °F 23.0 °F 25.3 °F 73% 30.20 in 10.0 mi East 15.0 mph 20.7 mph N/A   Overcast
10:34 AM 32.9 °F 22.4 °F 24.8 °F 72% 30.20 in 10.0 mi East 16.1 mph 24.2 mph N/A   Overcast
10:54 AM 32.9 °F 23.2 °F 24.8 °F 72% 30.20 in 10.0 mi East 13.8 mph - N/A   Overcast
11:14 AM 32.5 °F 22.7 °F 24.6 °F 73% 30.20 in 10.0 mi East 13.8 mph 19.6 mph N/A   Overcast
11:33 AM 32.2 °F 22.3 °F 24.4 °F 73% 30.19 in 10.0 mi East 13.8 mph 20.7 mph N/A   Overcast
11:54 AM 32.0 °F 21.2 °F 23.9 °F 72% 30.17 in 10.0 mi East 16.1 mph - N/A   Overcast
12:14 PM 32.2 °F 21.8 °F 23.5 °F 70% 30.16 in 10.0 mi East 15.0 mph 19.6 mph N/A   Overcast
12:33 PM 32.2 °F 21.4 °F 24.1 °F 72% 30.14 in 10.0 mi East 16.1 mph 23.0 mph N/A   Overcast
12:54 PM 32.0 °F 21.2 °F 24.8 °F 75% 30.13 in 10.0 mi East 16.1 mph 21.9 mph N/A   Overcast
1:14 PM 31.6 °F 20.7 °F 24.1 °F 74% 30.12 in 10.0 mi East 16.1 mph 19.6 mph N/A   Overcast
1:33 PM 31.8 °F 20.6 °F 24.1 °F 73% 30.10 in 10.0 mi ENE 17.3 mph 23.0 mph N/A   Overcast
1:54 PM 31.8 °F 20.6 °F 24.4 °F 74% 30.10 in 10.0 mi ENE 17.3 mph 20.7 mph N/A   Overcast
2:14 PM 31.5 °F 20.1 °F 23.5 °F 73% 30.06 in 10.0 mi NE 17.3 mph 24.2 mph N/A   Overcast
2:33 PM 31.3 °F 19.5 °F 23.7 °F 74% 30.05 in 10.0 mi ENE 18.4 mph 24.2 mph N/A   Overcast
2:54 PM 31.3 °F 19.5 °F 23.7 °F 74% 30.03 in 10.0 mi NE 18.4 mph 27.6 mph N/A   Overcast
3:14 PM 31.3 °F 19.9 °F 23.0 °F 71% 30.01 in 10.0 mi NE 17.3 mph 27.6 mph N/A   Overcast
3:33 PM 31.1 °F 18.6 °F 22.6 °F 71% 29.99 in 10.0 mi NE 20.7 mph 27.6 mph N/A   Overcast
3:54 PM 31.6 °F 18.7 °F 23.4 °F 71% 29.98 in 10.0 mi ENE 23.0 mph 29.9 mph N/A   Overcast
4:14 PM 32.0 °F 20.1 °F 24.6 °F 74% 29.98 in 10.0 mi ENE 19.6 mph 25.3 mph N/A   Overcast
4:33 PM 32.0 °F 20.8 °F 26.2 °F 79% 29.97 in 1.2 mi ENE 17.3 mph 25.3 mph N/A Snow Light Snow
4:54 PM 30.7 °F 18.1 °F 28.4 °F 91% 29.96 in 0.5 mi ENE 20.7 mph 26.5 mph N/A Snow Light Snow
5:14 PM 30.9 °F 18.7 °F 28.9 °F 92% 29.93 in 1.2 mi ENE 19.6 mph 27.6 mph N/A Snow Light Snow
5:33 PM 31.6 °F 19.7 °F 29.1 °F 90% 29.91 in 1.8 mi ENE 19.6 mph 28.8 mph N/A Snow Light Snow
5:54 PM 31.8 °F 19.9 °F 29.3 °F 90% 29.89 in 1.2 mi ENE 19.6 mph 28.8 mph N/A Snow Light Snow
6:14 PM 32.0 °F 22.5 °F 30.4 °F 94% 29.91 in 1.0 mi East 12.7 mph 24.2 mph N/A Snow Light Snow
6:34 PM 32.0 °F 21.6 °F 28.9 °F 88% 29.90 in 2.0 mi East 15.0 mph 25.3 mph 0.02 in Snow Light Snow
6:54 PM 31.8 °F 21.0 °F 30.0 °F 93% 29.90 in 1.0 mi East 16.1 mph 19.6 mph 0.02 in Snow Light Snow
7:14 PM 31.8 °F 21.0 °F 30.6 °F 95% 29.88 in 0.8 mi East 16.1 mph 23.0 mph 0.01 in Snow Snow
7:34 PM 31.8 °F 22.3 °F 30.6 °F 95% 29.86 in 0.5 mi East 12.7 mph 23.0 mph 0.01 in Snow Snow
7:54 PM 32.0 °F 22.1 °F 30.6 °F 94% 29.84 in 1.5 mi East 13.8 mph 23.0 mph 0.02 in Snow Light Snow
8:14 PM 32.0 °F 22.1 °F 30.9 °F 96% 29.83 in 1.5 mi East 13.8 mph 21.9 mph N/A Snow Light Snow
8:33 PM 32.0 °F 21.2 °F 31.1 °F 96% 29.81 in 1.8 mi East 16.1 mph 20.7 mph N/A Snow Light Snow
8:54 PM 32.2 °F 23.2 °F 31.1 °F 96% 29.78 in 4.0 mi East 11.5 mph 17.3 mph N/A Snow Light Snow
9:14 PM 32.7 °F 23.4 °F 31.5 °F 95% 29.76 in 4.0 mi East 12.7 mph 19.6 mph N/A Snow Light Snow
9:33 PM 32.9 °F 23.7 °F 31.6 °F 95% 29.75 in 4.0 mi East 12.7 mph 18.4 mph N/A Snow Light Snow
9:54 PM 32.9 °F 24.7 °F 32.0 °F 96% 29.73 in 4.0 mi East 10.4 mph - N/A   Overcast
10:14 PM 33.3 °F 25.7 °F 32.0 °F 95% 29.72 in 4.0 mi East 9.2 mph - N/A Rain Light Rain
10:33 PM 33.4 °F 24.8 °F 32.0 °F 94% 29.71 in 5.0 mi East 11.5 mph - N/A Rain Rain
10:54 PM 33.4 °F 26.6 °F 32.0 °F 94% 29.70 in 4.0 mi East 8.1 mph - N/A   Drizzle
11:14 PM 33.4 °F 26.6 °F 32.2 °F 95% 29.70 in 4.0 mi East 8.1 mph - N/A   Drizzle
11:33 PM 33.4 °F 27.3 °F 32.4 °F 96% 29.68 in 2.0 mi East 6.9 mph - N/A Rain Light Rain
11:54 PM 33.4 °F 27.3 °F 32.5 °F 96% 29.66 in 2.5 mi East 6.9 mph - N/A Snow Light Snow